Weather Roundup
Issued by NWS Corpus Christi, TX

Home | Current Version | Previous Version | Text Only | Print | Product List | Glossary On
Versions: 1 2 3 4 5 6 7 8 9 10 11 12 13 14 15 16 17 18 19 20 21 22 23 24 25 26 27 28 29 30 31 32 33 34 35 36 37 38 39 40 41 42 43 44 45 46 47 48 49 50
000
ASUS44 KCRP 260010
HRRCRP

SOUTH TEXAS REGIONAL WEATHER ROUNDUP
NATIONAL WEATHER SERVICE CORPUS CHRISTI TX
700 PM CDT MON JUL 25 2016


TXZ229>244-260100-
...CORPUS CHRISTI AREA OBSERVATIONS...

CITY           SKY/WX    TMP DP  RH WIND       PRES   REMARKS
CORPUS CHRISTI PTSUNNY   89  75  63 SE15G25   29.85R HX  99
NAS CORPUS CHR PTSUNNY   87  80  79 SE18      29.86R HX 103
ROCKPORT       CLOUDY    88  75  65 SE15      29.85S HX  97
KINGSVILLE NAS PTSUNNY   91  78  65 SE17G23   29.84R HX 106
ALICE          SUNNY     94  72  48 SE17      29.82S HX 102
FALFURRIAS     MOSUNNY   94  73  50 E16       29.83R HX 102
$$

...VICTORIA AREA OBSERVATIONS...

CITY           SKY/WX    TMP DP  RH WIND       PRES   REMARKS
VICTORIA       CLOUDY    88  73  61 SE13      29.88R HX  95
BEEVILLE       FAIR      87  76  69 SE12      29.84S HX  97
PLEASANTON     SUNNY    100  62  27 E7        29.82S HX 102
SAN ANTONIO    PTSUNNY   92  70  48 NW3       29.85F HX  97
$$

...LAREDO AREA OBSERVATIONS...

CITY           SKY/WX    TMP DP  RH WIND       PRES   REMARKS
LAREDO         MOSUNNY  100  66  32 SE10      29.80  HX 104
COTULLA        PTSUNNY  103  60  24 SE13      29.80F HX 104
DEL RIO        SUNNY    101  60  25 SE9       29.80F HX 101
MCALLEN        MOSUNNY   98  70  40 SE17G24   29.83S HX 105
HEBBRONVILLE   MOSUNNY   99  60  27 E10       29.83S HX  99
$$

...OTHER TEXAS OBSERVATIONS...

CITY           SKY/WX    TMP DP  RH WIND       PRES   REMARKS
BROWNSVILLE    PTSUNNY   88  76  67 SE18      29.86F HX  99
HOUSTON        CLOUDY    84  73  69 S5        29.93R HX  90
COL. STATION   CLOUDY    80  74  81 E14       29.95R
AUSTIN         TSTM      89  71  55 E24G30    29.88R HX  95
WACO           CLOUDY    77  71  82 E6        29.95R
FORT WORTH     CLOUDY    84  73  69 E12       29.91S HX  90
WICHITA FALLS  CLOUDY    90  68  48 SE10      29.91R HX  94
LUBBOCK        PTSUNNY   84  59  42 NE20G29   30.04S SMOKE
EL PASO        MOSUNNY   99  44  15 SE10G18   29.96F HX  95
$$

...MARINE OBSERVATIONS...

STATION/POSITION TIME  SKY/WX   TEMP    WIND        PRES    VSBY  WAVE   SWELL
                                AIR SEA DIR/SP/G                  HT/PER HT/PER
                 (UTC)          (F)     (DEG/KT/KT) (MB)    (MI)  (FT/S) (FT/S)
PORT ARANSAS     0000            85 89  140/ 19/ 21 1011.2R
BUOY 90 E PORT A 2350            83 87  120/ 12/ 14 1012.1F         2/ 5
BUOY 45 SE BAFFI 2350            85 85  150/ 14/ 16 1011.1S         2/ 5
BUOY 200 E PT IS 2350            82 87   50/ 12/ 16 1013.8R         2/ 5
BUOY 15 E GALVES 2350            82 88  200/  6/  8 1012.5R         1/ 4   2/ 4
$$



USA.gov is the U.S. government's official web portal to all federal, state and local government web resources and services.